Location: Hains Lake
(37.8540°N, 99.8578°W)
Time: 07:55:20
(UTC+00:00)

Vanguard 1 - Pass Details

Date: 09 December 2021
Orbit: 652 x 3830 km, 34.2° (Epoch: 24 January)

Event Time Altitude Azimuth Distance (km) Brightness Sun altitude
Rises 04:03:44 0° 224° (SW) 5,973 14.3 -55.0°
Reaches altitude 10° 04:07:12 10° 220° (SW) 5,318 13.9 -55.7°
Enters shadow 04:13:48 32° 206° (SSW) 4,352 13.2 -56.9°
